User: anonymous
Location: Monroe
(41.9160°N, 83.3980°W)
Time: 00:46:55
(UTC-04:00)
Language:

ISS - Orbit

View from above orbital plane
View from above orbital plane
View from above satellite
View from above satellite

Ground track
Ground track

The orbit data is extracted from the following two-line orbital elements,

1 25544U 98067A   14294.82881405  .00020860  00000-0  36335-3 0  2774
2 25544 051.6465 191.8315 0002384 281.4042 190.4026 15.50707132910974
Epoch (UTC): 21 October 2014 19:53:29
Eccentricity: 0.0002384
inclination: 51.6465°
perigee height: 413 km
apogee height: 416 km
right ascension of ascending node: 191.8315°
argument of perigee: 281.4042°
revolutions per day: 15.50707132
mean anomaly at epoch: 190.4026°
orbit number at epoch: 91097

The dashed part of the orbit path shows where the satellite is in the earth's shadow,  

DLR